{"data":{"norad_id":36131,"intl_designator":"2009-075A","name":"DIRECTV 12","alt_names":[],"object_type":"PAYLOAD","status":"ACTIVE","operator":null,"country":"US","launch_date":"2009-12-29","launch_site_code":"TYMSC","launch_vehicle":null,"mission":null,"orbit_class":"UNKNOWN","rcs_meters":14.1132,"size_class":null,"mass_kg":null,"dimensions":null,"purposes":["comms"],"wikipedia_slug":null,"has_3d_model":false,"image_url":null,"decayed_at":null,"tle_current":{"epoch":"2026-09-20T04:19:38.599104Z","epoch_age_seconds":45943,"freshness":"FRESH","line1":"1 36131U 09075A   26263.18030786 -.00000108  00000+0  00000+0 0  9995","line2":"2 36131   0.0417 350.2326 0000403 125.6332 205.4225  1.00273110 47509","mean_motion":1.0027311,"eccentricity":4.03e-5,"inclination_deg":0.0417,"raan_deg":350.2326,"arg_perigee_deg":125.6332,"mean_anomaly_deg":205.4225,"bstar":0,"rev_number":4750,"period_min":1436.077927572,"perigee_km":35784.524295953,"apogee_km":35787.922743411,"semimajor_km":42164.360519682,"source":"CELESTRAK","updated_at":"2026-09-20T09:00:35.518402Z"}}}